Location: Unspecified
(0.0000°N, 0.0000°E)
Time: 10:09:10
(UTC+00:00)

Courier 1B Rocket - Pass Details

Date: 22 May 2026
Orbit: 920 x 1201 km, 28.2° (Epoch: 9 June)

Event Time Altitude Azimuth Distance (km) Brightness Sun altitude
Rises 15:44:26 0° 258° (WSW) 3,827 8.8 30.7°
Reaches altitude 10° 15:48:21 10° 238° (WSW) 2,933 8.1 29.9°
Maximum altitude 15:52:34 16° 201° (SSW) 2,557 7.3 28.9°
Drops below altitude 10° 15:56:57 10° 165° (SSE) 3,049 7.3 27.9°
Sets 16:01:11 0° 145° (SE) 4,053 7.8 26.9°
